Weather History for KRWF - June, 2013

Change the Weather History Date:

Sunday, June 9, 2013

  Actual Average Record
Temperature  
Mean Temperature 62 °F -  
Max Temperature 70 °F - - ()
Min Temperature 57 °F - - ()
Degree Days  
Heating Degree Days 2    
Growing Degree Days 12 (Base 50)    
Moisture  
Dew Point 58 °F    
Average Humidity 93    
Maximum Humidity 100    
Minimum Humidity 81    
Precipitation  
Precipitation 0.66 in - - ()
Sea Level Pressure  
Sea Level Pressure 29.74 in    
Wind  
Wind Speed 13 mph (ENE)    
Max Wind Speed 20 mph    
Max Gust Speed 32 mph    
Visibility 5 miles    
Events Rain    
T = Trace of Precipitation, MM = Missing Value Source: NWS Daily Summary

Daily Weather History Graph

Daily Weather History Graph

Search for Another Location

Airport or City:

Trip Planner

Search our weather history database for the weather conditions in past years. The results will help you decide how hot, cold, wet, or windy it might be!

Date:

Astronomy

Jun. 09, 2013 Rise Set
Actual Time 5:35 AM CDT 9:04 PM CDT
Civil Twilight 4:58 AM CDT 9:40 PM CDT
Nautical Twilight 4:10 AM CDT 10:29 PM CDT
Astronomical Twilight 3:09 AM CDT 11:30 PM CDT
Moon 6:35 AM CDT (6/9) 9:48 PM CDT (6/9)
Length of Visible Light 16h 41m
Length of Day
15h 28m
New Moon, 1% of the Moon is Illuminated
Jun 9
New Moon
Jun 16
First Quarter
Jun 23
Full
Jun 29
Last Quarter
Jul 8
New

Hourly Weather History & Observations

Time (CDT) Temp. Dew Point Humidity Pressure Visibility Wind Dir Wind Speed Gust Speed Precip Events Conditions
12:24 AM 57.2 °F 57.2 °F 100% 29.81 in 5.0 mi East 13.8 mph 21.9 mph 0.05 in Rain Light Rain
12:53 AM 57.9 °F 57.0 °F 97% 29.81 in 4.0 mi ESE 13.8 mph 23.0 mph 0.10 in Rain Rain
12:59 AM 57.2 °F 57.2 °F 100% 29.81 in 4.0 mi East 12.7 mph 23.0 mph 0.02 in Rain Rain
1:13 AM 57.2 °F 57.2 °F 100% 29.80 in 3.0 mi East 17.3 mph 21.9 mph 0.07 in Rain Rain
1:51 AM 57.2 °F 57.2 °F 100% 29.78 in 3.0 mi East 15.0 mph 23.0 mph 0.19 in Rain Rain
1:53 AM 57.9 °F 57.0 °F 97% 29.78 in 3.0 mi East 16.1 mph 26.5 mph 0.20 in Rain Rain
2:34 AM 57.2 °F 57.2 °F 100% 29.76 in 4.0 mi East 12.7 mph 21.9 mph 0.08 in Rain Rain
2:51 AM 57.2 °F 55.4 °F 94% 29.75 in 4.0 mi East 16.1 mph 23.0 mph 0.12 in Rain Rain
2:53 AM 57.9 °F 55.9 °F 93% 29.75 in 4.0 mi East 17.3 mph 27.6 mph 0.13 in Rain Rain
3:50 AM 57.2 °F 57.2 °F 100% 29.72 in 4.0 mi East 17.3 mph 25.3 mph 0.11 in Rain Light Rain
3:53 AM 57.9 °F 57.0 °F 97% 29.72 in 4.0 mi East 19.6 mph 27.6 mph 0.11 in Rain Light Rain
4:07 AM 57.2 °F 57.2 °F 100% 29.71 in 4.0 mi East 17.3 mph 32.2 mph 0.02 in Rain Light Rain
4:15 AM 59.0 °F 57.2 °F 94% 29.70 in 5.0 mi East 16.1 mph 29.9 mph 0.03 in Rain Light Rain
4:38 AM 57.2 °F 57.2 °F 100% 29.70 in 4.0 mi East 16.1 mph 29.9 mph 0.05 in Rain Light Rain
4:45 AM 57.2 °F 57.2 °F 100% 29.70 in 3.0 mi East 15.0 mph 27.6 mph 0.06 in Rain Light Rain
4:53 AM 57.9 °F 57.0 °F 97% 29.70 in 4.0 mi East 16.1 mph 24.2 mph 0.07 in Rain Light Rain
5:53 AM 57.9 °F 55.9 °F 93% 29.69 in 5.0 mi East 17.3 mph 26.5 mph 0.01 in   Overcast
6:53 AM 57.0 °F 55.9 °F 96% 29.69 in 1.8 mi East 13.8 mph 25.3 mph 0.00 in Rain Light Rain
7:03 AM 57.2 °F 55.4 °F 94% 29.69 in 3.0 mi ESE 15.0 mph 24.2 mph 0.01 in   Overcast
7:17 AM 57.2 °F 55.4 °F 94% 29.69 in 2.5 mi East 17.3 mph 23.0 mph 0.01 in   Overcast
7:24 AM 57.2 °F 55.4 °F 94% 29.69 in 4.0 mi East 16.1 mph 23.0 mph 0.01 in   Overcast
7:53 AM 57.0 °F 55.9 °F 96% 29.68 in 4.0 mi East 12.7 mph - 0.01 in   Overcast
8:23 AM 57.2 °F 55.4 °F 94% 29.68 in 1.8 mi East 16.1 mph 23.0 mph 0.00 in Rain Light Rain
8:53 AM 57.0 °F 55.9 °F 96% 29.68 in 1.2 mi East 12.7 mph 21.9 mph 0.01 in Rain Light Rain
9:10 AM 57.2 °F 57.2 °F 100% 29.69 in 2.5 mi East 13.8 mph 19.6 mph 0.00 in Rain Light Rain
9:49 AM 57.2 °F 57.2 °F 100% 29.69 in 3.0 mi East 11.5 mph 19.6 mph 0.00 in   Overcast
9:53 AM 57.9 °F 57.0 °F 97% 29.69 in 3.0 mi East 12.7 mph 19.6 mph 0.00 in   Overcast
10:09 AM 57.2 °F 57.2 °F 100% 29.69 in 2.0 mi East 11.5 mph - 0.00 in Rain Light Rain
10:25 AM 59.0 °F 57.2 °F 94% 29.70 in 3.0 mi East 8.1 mph - 0.00 in   Overcast
10:53 AM 60.1 °F 59.0 °F 96% 29.70 in 4.0 mi East 9.2 mph - 0.00 in   Overcast
11:53 AM 62.1 °F 60.1 °F 93% 29.71 in 5.0 mi East 9.2 mph - 0.01 in   Overcast
12:20 PM 60.8 °F 60.8 °F 100% 29.71 in 1.8 mi East 10.4 mph 20.7 mph 0.01 in Rain Rain
12:33 PM 60.8 °F 60.8 °F 100% 29.72 in 2.5 mi East 9.2 mph 20.7 mph 0.01 in Rain Light Rain
12:44 PM 62.6 °F 60.8 °F 94% 29.72 in 4.0 mi East 11.5 mph 18.4 mph 0.01 in   Overcast
12:53 PM 63.0 °F 61.0 °F 93% 29.72 in 5.0 mi East 12.7 mph 18.4 mph 0.01 in   Overcast
1:15 PM 64.4 °F 60.8 °F 88% 29.72 in 7.0 mi East 12.7 mph 19.6 mph N/A   Overcast
1:53 PM 64.0 °F 59.0 °F 84% 29.73 in 8.0 mi East 15.0 mph 21.9 mph N/A   Overcast
2:07 PM 64.4 °F 60.8 °F 88% 29.72 in 9.0 mi East 10.4 mph 19.6 mph N/A   Overcast
2:53 PM 68.0 °F 62.1 °F 81% 29.72 in 10.0 mi East 11.5 mph 18.4 mph N/A   Mostly Cloudy
3:53 PM 66.9 °F 61.0 °F 81% 29.73 in 10.0 mi ENE 8.1 mph - N/A   Overcast
4:53 PM 66.9 °F 62.1 °F 84% 29.73 in 10.0 mi ENE 9.2 mph - N/A   Overcast
5:53 PM 66.9 °F 61.0 °F 81% 29.75 in 10.0 mi NE 8.1 mph - N/A   Overcast
6:20 PM 66.2 °F 60.8 °F 83% 29.75 in 10.0 mi NE 6.9 mph - N/A   Overcast
6:53 PM 66.9 °F 61.0 °F 81% 29.76 in 10.0 mi NE 9.2 mph - N/A   Scattered Clouds
7:53 PM 64.9 °F 60.1 °F 84% 29.78 in 9.0 mi North 4.6 mph - N/A   Overcast
8:36 PM 64.4 °F 60.8 °F 88% 29.79 in 7.0 mi NNE 5.8 mph - N/A   Overcast
8:53 PM 63.0 °F 60.1 °F 90% 29.80 in 6.0 mi North 5.8 mph - N/A   Overcast
9:20 PM 62.6 °F 59.0 °F 88% 29.80 in 7.0 mi North 8.1 mph - N/A   Overcast
9:27 PM 62.6 °F 59.0 °F 88% 29.81 in 7.0 mi North 8.1 mph - N/A   Overcast
9:35 PM 62.6 °F 59.0 °F 88% 29.81 in 8.0 mi North 6.9 mph - N/A   Overcast
9:53 PM 62.1 °F 59.0 °F 90% 29.82 in 7.0 mi North 8.1 mph - N/A   Overcast
10:23 PM 62.6 °F 59.0 °F 88% 29.82 in 7.0 mi North 5.8 mph - N/A   Overcast
10:48 PM 60.8 °F 59.0 °F 94% 29.83 in 6.0 mi NNW 4.6 mph - N/A   Overcast
10:53 PM 61.0 °F 59.0 °F 93% 29.83 in 6.0 mi North 5.8 mph - N/A   Overcast
11:53 PM 60.1 °F 57.9 °F 93% 29.83 in 6.0 mi North 8.1 mph - 0.00 in   Overcast